Regional Weather Roundup
Issued by NWS

Home | Current Version | Previous Version | Graphics & Text | Print | Product List | Glossary On
Versions: 1 2 3 4 5 6 7 8 9 10 11 12 13 14 15 16 17 18 19 20 21 22 23 24 25 26 27 28 29 30 31 32 33 34 35 36 37 38 39 40 41 42 43 44 45 46 47 48 49 50
000
ASUS45 KSLC 010710
RWRUT

UTAH REGIONAL WEATHER ROUNDUP
NATIONAL WEATHER SERVICE SALT LAKE CITY UT
100 AM MDT TUE SEP 01 2015

UTZ001>011-023>025-010800-

NORTHERN UTAH

CITY           SKY/WX    TMP DP  RH WIND       PRES   REMARKS
BRIGHAM CITY   CLEAR     63  44  49 N3        29.97F
HILL AFB       PTCLDY    68  36  30 E15       30.00S
LOGAN          CLEAR     56  43  61 CALM      30.00F
OGDEN          CLEAR     68  37  32 CALM      29.98R
PROVO AIRPORT  PTCLDY    68  43  40 CALM      30.01S
SALT LAKE CITY MOCLDY    75  42  30 SE12      29.96S
VERNAL         PTCLDY    59  45  59 W7        30.13F
WENDOVER       CLEAR     68  34  28 W5        29.96S
HEBER CITY     PTCLDY    55  41  58 CALM      30.11S
WEST JORDAN    CLEAR     70  46  43 S5        30.00S

$$

UTZ012>022-026-027-010800-

SOUTHERN/CENTRAL UTAH

CITY           SKY/WX    TMP DP  RH WIND       PRES   REMARKS
BLANDING       CLEAR     61  46  56 NE5       30.26R
BRYCE CANYON   MOCLDY    52  46  80 N5        30.31S
CEDAR CITY     CLEAR     72  46  39 E9        30.12S
DELTA          CLEAR     74  35  23 S12       30.02R
HANKSVILLE     MOCLDY    68  50  52 NW6       30.07S
MILFORD        CLEAR     71  38  29 SW12      30.05R
MOAB/CYNLANDS  CLEAR     72  48  42 SE3       30.05R
PRICE          CLEAR     59  49  69 NE8       30.15S
ST GEORGE      MOSUNNY   82  52  34 E14       29.95R
KANAB          CLOUDY    66  57  72 CALM      30.19R

$$

REGIONAL REPORTS     COLORADO/ARIZONA

CITY           SKY/WX    TMP DP  RH WIND       PRES   REMARKS
CRAIG, CO      PTCLDY    51  45  79 SE3       30.21F
GRAND JUNCTION CLEAR     65  53  65 S3        30.09S
RIFLE          PTCLDY    60  51  72 SE5       30.17F
MONTROSE       PTCLDY    62  51  67 CALM      30.19S
CORTEZ         CLEAR     59  46  62 E6        30.20S
PAGE, AZ       CLEAR     74  52  46 S6        30.09R
GRAND CANYON   LGT RAIN  61  54  77 S9          N/A
KINGMAN        CLEAR     81  50  33 S10       29.98R
FLAGSTAFF      PTCLDY    52  50  93 SW3       30.32R

$$

REGIONAL REPORTS    NEVADA/IDAHO/WYOMING

CITY           SKY/WX    TMP DP  RH WIND       PRES   REMARKS
LAS VEGAS, NV  CLEAR     87  32  14 SW6       29.80R
ELY            MOCLDY    66  33  29 S12       30.11R
ELKO           CLEAR     61  29  29 E6        30.01R
POCATELLO, ID  CLEAR     54  34  46 E6        30.01S
BURLEY         CLEAR     50  41  71 CALM      29.97S
EVANSTON, WY   CLEAR     61  36  39 S3        30.20S
ROCK SPRINGS   CLEAR     60  40  47 SW12      30.18S
KEMMERER       CLEAR     54  27  35 CALM      30.22R

$$



USA.gov is the U.S. government's official web portal to all federal, state and local government web resources and services.